Location: Houhaj�rvi
(61.2833°N, 23.0000°E)
Time: 15:38:36
(UTC+00:00)

Cosmos 1943 Rocket - Pass Details

Date: 27 February 2020
Orbit: 814 x 842 km, 71.0° (Epoch: 27 March)

Event Time Altitude Azimuth Distance (km) Brightness Sun altitude
Rises 23:11:38 0° 313° (NW) 3,357 5.7 -36.7°
Reaches altitude 10° 23:14:07 10° 318° (NW) 2,420 4.9 -36.6°
Enters shadow 23:16:09 23° 326° (NW) 1,700 4.1 -36.6°
